Weather History for Guymon, OK

Change the Weather History Date:

Friday, July 18, 2014

  Actual Average Record
Temperature  
Mean Temperature 72 °F 80 °F  
Max Temperature 83 °F 95 °F 102 °F (2010)
Min Temperature 60 °F 66 °F 60 °F (2014)
Degree Days  
Heating Degree Days 0 0  
Month to date heating degree days 4 0  
Since 1 June heating degree days 9 8  
Since 1 July heating degree days 4 0  
Cooling Degree Days 7 15  
Month to date cooling degree days 232 260  
Year to date cooling degree days 759 648  
Since 1 June cooling degree days 581 540  
Growing Degree Days 21 (Base 50)    
Moisture  
Dew Point 60 °F    
Average Humidity 74    
Maximum Humidity 97    
Minimum Humidity 51    
Precipitation  
Precipitation 0.00 in 0.09 in 0.02 in (2001)
Month to date precipitation 0.94 1.55  
Year to date precipitation 6.67 10.74  
Snow  
Snow 0.00 in - - ()
Month to date snowfall 0.0  
Since 1 June snowfall 0.0  
Since 1 July snowfall 0.0  
Snow Depth 0.00 in    
Sea Level Pressure  
Sea Level Pressure 29.95 in    
Wind  
Wind Speed 10 mph (South)    
Max Wind Speed 21 mph    
Max Gust Speed 27 mph    
Visibility 10 miles    
Events      
T = Trace of Precipitation, MM = Missing Value Source: NWS Daily Summary

Daily Weather History Graph

Daily Weather History Graph

Search for Another Location

Airport:

Trip Planner

Search our weather history database for the weather conditions in past years. The results will help you decide how hot, cold, wet, or windy it might be!

Date:

Astronomy

Jul. 18, 2014 Rise Set
Actual Time 6:41 AM CDT 9:02 PM CDT
Civil Twilight 6:11 AM CDT 9:32 PM CDT
Nautical Twilight 5:35 AM CDT 10:08 PM CDT
Astronomical Twilight 4:54 AM CDT 10:48 PM CDT
Moon 12:36 AM CDT (7/18) 1:47 PM CDT (7/18)
Length of Visible Light 15h 20m
Length of Day
14h 21m
Waning Gibbous, 54% of the Moon is Illuminated
Jul 18
Waning Gibbous
Jul 18
Last Quarter
Jul 26
New
Aug 3
First Quarter
Aug 10
Full

Hourly Weather History & Observations

Time (CDT) Temp. Heat Index Dew Point Humidity Pressure Visibility Wind Dir Wind Speed Gust Speed Precip Events Conditions
1:53 AM 61.0 °F - 57.9 °F 90% 30.03 in 10.0 mi South 5.8 mph - N/A   Overcast
2:40 AM 61.0 °F - 57.0 °F 87% 30.10 in 10.0 mi Calm Calm - N/A   Overcast
2:53 AM 61.0 °F - 57.9 °F 90% 30.01 in 10.0 mi Calm Calm - N/A   Overcast
3:53 AM 61.0 °F - 57.9 °F 90% 30.00 in 10.0 mi SW 4.6 mph - N/A   Overcast
4:53 AM 60.1 °F - 59.0 °F 96% 30.00 in 10.0 mi West 3.5 mph - N/A   Overcast
5:53 AM 60.1 °F - 57.9 °F 93% 30.00 in 10.0 mi SSE 3.5 mph - N/A   Overcast
6:53 AM 60.1 °F - 59.0 °F 96% 30.01 in 10.0 mi SSE 3.5 mph - N/A   Overcast
7:53 AM 61.0 °F - 59.0 °F 93% 30.00 in 10.0 mi SSE 5.8 mph - N/A   Overcast
8:53 AM 63.0 °F - 59.0 °F 87% 30.00 in 10.0 mi SE 4.6 mph - N/A   Overcast
9:53 AM 64.9 °F - 60.1 °F 84% 30.00 in 10.0 mi South 8.1 mph - N/A   Overcast
10:53 AM 69.1 °F - 60.1 °F 73% 29.96 in 10.0 mi SSE 11.5 mph - N/A   Mostly Cloudy
11:02 AM 70.0 °F - 60.1 °F 71% 30.05 in 10.0 mi SSE 10.4 mph - N/A   Scattered Clouds
11:40 AM 71.1 °F - 60.1 °F 68% 30.05 in 10.0 mi South 11.5 mph - N/A   Mostly Cloudy
11:53 AM 71.1 °F - 60.1 °F 68% 29.95 in 10.0 mi South 10.4 mph - N/A   Overcast
12:53 PM 75.0 °F - 62.1 °F 64% 29.92 in 10.0 mi South 13.8 mph 20.7 mph N/A   Overcast
2:53 PM 78.1 °F - 63.0 °F 60% 29.89 in 10.0 mi South 11.5 mph - N/A   Overcast
3:53 PM 79.0 °F - 62.1 °F 56% 29.88 in 10.0 mi SSE 15.0 mph - N/A   Scattered Clouds
4:53 PM 81.0 °F 82.2 °F 63.0 °F 54% 29.86 in 10.0 mi South 13.8 mph - N/A   Partly Cloudy
5:53 PM 82.0 °F 83.0 °F 62.1 °F 51% 29.85 in 10.0 mi SSE 16.1 mph 24.2 mph N/A   Scattered Clouds
6:53 PM 81.0 °F 81.9 °F 62.1 °F 52% 29.83 in 10.0 mi South 13.8 mph - N/A   Clear
7:53 PM 79.0 °F - 62.1 °F 56% 29.84 in 10.0 mi South 13.8 mph 24.2 mph N/A   Clear
8:53 PM 75.0 °F - 62.1 °F 64% 29.86 in 10.0 mi South 10.4 mph - N/A   Clear
9:53 PM 72.0 °F - 62.1 °F 71% 29.86 in 10.0 mi SSE 12.7 mph - N/A   Clear
10:53 PM 70.0 °F - 62.1 °F 76% 29.88 in 10.0 mi South 12.7 mph - N/A   Clear
11:53 PM 69.1 °F - 62.1 °F 78% 29.91 in 10.0 mi South 11.5 mph - N/A   Clear